User: anonymous   Login
Location: Santa Teresa Spring
(37.2333°N, 121.7000°W)
Time: 06:14:42
(UTC-07:00)
Language:

Cosmos 1633 - Orbit

View from above orbital plane
View from above orbital plane
View from above satellite
View from above satellite

Ground track
Ground track

The orbit data is extracted from the following two-line orbital elements,

1 15592U 85020A   15106.92151426  .00012754  00000-0  53529-3 0  9996
2 15592 082.5434 030.5863 0017755 089.8686 315.3096 15.23202560643449
Epoch (UTC): 16 April 2015 22:06:58
Eccentricity: 0.0017755
inclination: 82.5434°
perigee height: 484 km
apogee height: 508 km
right ascension of ascending node: 30.5863°
argument of perigee: 89.8686°
revolutions per day: 15.23202560
mean anomaly at epoch: 315.3096°
orbit number at epoch: 64344

The dashed part of the orbit path shows where the satellite is in the earth's shadow,  

DLR